Time,TemperatureF,DewpointF,PressureIn,WindDirection,WindDirectionDegrees,WindSpeedMPH,WindSpeedGustMPH,Humidity,HourlyPrecipIn,Conditions,Clouds,dailyrainin,SoftwareType,DateUTC
2013-03-10 00:00:00,28.8,20.4,30.34,East,90,1.1,1.6,70,0.00,,,0.00,WUHU216HW,2013-03-10 05:00:00,
2013-03-10 00:01:00,28.8,20.4,30.34,East,90,1.1,1.6,70,0.00,,,0.00,WUHU216HW,2013-03-10 05:01:00,
2013-03-10 00:06:00,28.8,20.4,30.34,ESE,113,2.5,2.5,70,0.00,,,0.00,WUHU216HW,2013-03-10 05:06:00,
2013-03-10 00:11:00,28.4,20.0,30.34,ESE,113,2.0,2.5,70,0.00,,,0.00,WUHU216HW,2013-03-10 05:11:00,
2013-03-10 00:16:00,28.3,19.8,30.34,ESE,113,1.6,2.5,70,0.00,,,0.00,WUHU216HW,2013-03-10 05:16:00,
2013-03-10 00:21:00,28.3,19.8,30.34,East,90,1.6,2.0,70,0.00,,,0.00,WUHU216HW,2013-03-10 05:21:00,
2013-03-10 00:26:00,28.3,19.8,30.34,East,90,1.8,2.2,70,0.00,,,0.00,WUHU216HW,2013-03-10 05:26:00,
2013-03-10 00:31:00,27.9,19.4,30.34,East,90,2.5,2.5,70,0.00,,,0.00,WUHU216HW,2013-03-10 05:31:00,
2013-03-10 00:36:00,27.9,19.7,30.33,East,90,2.9,2.9,71,0.00,,,0.00,WUHU216HW,2013-03-10 05:36:00,
2013-03-10 00:41:00,27.7,19.9,30.33,East,90,2.7,3.4,72,0.00,,,0.00,WUHU216HW,2013-03-10 05:41:00,
2013-03-10 00:46:00,27.7,19.9,30.33,East,90,2.5,3.4,72,0.00,,,0.00,WUHU216HW,2013-03-10 05:46:00,
2013-03-10 00:51:00,27.7,19.9,30.34,ESE,113,2.7,2.7,72,0.00,,,0.00,WUHU216HW,2013-03-10 05:51:00,
2013-03-10 00:56:00,27.4,19.5,30.34,ESE,113,2.0,2.7,72,0.00,,,0.00,WUHU216HW,2013-03-10 05:56:00,
2013-03-10 01:01:00,27.2,19.4,30.34,ESE,113,2.0,2.0,72,0.00,,,0.00,WUHU216HW,2013-03-10 06:01:00,
2013-03-10 01:06:00,27.0,19.2,30.34,ESE,113,4.0,4.0,72,0.00,,,0.00,WUHU216HW,2013-03-10 06:06:00,
2013-03-10 01:11:00,27.0,19.2,30.33,SE,135,3.1,4.0,72,0.00,,,0.00,WUHU216HW,2013-03-10 06:11:00,
2013-03-10 01:16:00,27.0,19.2,30.33,ESE,113,2.9,3.6,72,0.00,,,0.00,WUHU216HW,2013-03-10 06:16:00,
2013-03-10 01:21:00,27.0,19.2,30.33,ESE,113,3.4,3.4,72,0.00,,,0.00,WUHU216HW,2013-03-10 06:21:00,
2013-03-10 01:26:00,27.0,19.2,30.33,SE,135,2.9,3.6,72,0.00,,,0.00,WUHU216HW,2013-03-10 06:26:00,
2013-03-10 01:31:00,27.4,19.5,30.33,SE,135,3.4,4.0,72,0.00,,,0.00,WUHU216HW,2013-03-10 06:31:00,
2013-03-10 01:36:00,27.4,19.5,30.33,ESE,113,0.9,4.0,72,0.00,,,0.00,WUHU216HW,2013-03-10 06:36:00,
2013-03-10 01:41:00,27.5,20.0,30.33,SE,135,0.0,2.7,73,0.00,,,0.00,WUHU216HW,2013-03-10 06:41:00,
2013-03-10 01:46:00,27.5,20.0,30.32,SE,135,0.7,1.3,73,0.00,,,0.00,WUHU216HW,2013-03-10 06:46:00,
2013-03-10 01:51:00,27.5,20.0,30.32,ESE,113,1.6,1.8,73,0.00,,,0.00,WUHU216HW,2013-03-10 06:51:00,
2013-03-10 01:56:00,27.4,19.5,30.32,ESE,113,1.8,1.8,72,0.00,,,0.00,WUHU216HW,2013-03-10 06:56:00,
2013-03-10 03:01:00,27.4,19.5,30.32,ESE,113,4.5,4.7,72,0.00,,,0.00,WUHU216HW,2013-03-10 07:01:00,
2013-03-10 03:06:00,27.2,19.4,30.32,ESE,113,4.3,4.7,72,0.00,,,0.00,WUHU216HW,2013-03-10 07:06:00,
2013-03-10 03:11:00,27.4,19.5,30.31,ESE,113,3.8,4.7,72,0.00,,,0.00,WUHU216HW,2013-03-10 07:11:00,
2013-03-10 03:16:00,27.4,19.5,30.31,ESE,113,4.0,4.3,72,0.00,,,0.00,WUHU216HW,2013-03-10 07:16:00,
2013-03-10 03:21:00,27.5,20.4,30.31,ESE,113,4.0,4.5,74,0.00,,,0.00,WUHU216HW,2013-03-10 07:21:00,
2013-03-10 03:26:00,27.7,20.2,30.31,ESE,113,2.9,4.5,73,0.00,,,0.00,WUHU216HW,2013-03-10 07:26:00,
2013-03-10 03:31:00,27.7,20.2,30.31,ESE,113,1.3,4.0,73,0.00,,,0.00,WUHU216HW,2013-03-10 07:31:00,
2013-03-10 03:36:00,27.7,20.2,30.31,SE,135,1.8,3.1,73,0.00,,,0.00,WUHU216HW,2013-03-10 07:36:00,
2013-03-10 03:41:00,27.7,20.2,30.31,ESE,113,1.8,2.9,73,0.00,,,0.00,WUHU216HW,2013-03-10 07:41:00,
2013-03-10 03:46:00,27.7,20.2,30.30,ESE,113,2.2,2.7,73,0.00,,,0.00,WUHU216HW,2013-03-10 07:46:00,
2013-03-10 03:51:00,27.9,20.3,30.30,ESE,113,2.7,3.4,73,0.00,,,0.00,WUHU216HW,2013-03-10 07:51:00,
2013-03-10 03:56:00,27.9,20.3,30.30,SE,135,1.1,3.4,73,0.00,,,0.00,WUHU216HW,2013-03-10 07:56:00,
2013-03-10 04:01:00,27.9,20.3,30.29,SE,135,2.0,3.4,73,0.00,,,0.00,WUHU216HW,2013-03-10 08:01:00,
2013-03-10 04:06:00,27.9,20.3,30.29,ESE,113,2.7,3.4,73,0.00,,,0.00,WUHU216HW,2013-03-10 08:06:00,
2013-03-10 04:11:00,27.9,20.3,30.29,SE,135,1.1,3.4,73,0.00,,,0.00,WUHU216HW,2013-03-10 08:11:00,
2013-03-10 04:16:00,27.9,20.3,30.29,SW,225,0.4,2.0,73,0.00,,,0.00,WUHU216HW,2013-03-10 08:16:00,
2013-03-10 04:21:00,27.7,20.2,30.29,SW,225,0.0,0.4,73,0.00,,,0.00,WUHU216HW,2013-03-10 08:21:00,
2013-03-10 04:26:00,27.7,20.2,30.29,East,90,0.2,1.3,73,0.00,,,0.00,WUHU216HW,2013-03-10 08:26:00,
2013-03-10 04:31:00,27.5,20.0,30.29,SSE,158,1.1,1.3,73,0.00,,,0.00,WUHU216HW,2013-03-10 08:31:00,
2013-03-10 04:36:00,27.5,20.0,30.29,ESE,113,1.8,1.8,73,0.00,,,0.00,WUHU216HW,2013-03-10 08:36:00,
2013-03-10 04:41:00,27.5,20.4,30.29,ESE,113,2.0,2.0,74,0.00,,,0.00,WUHU216HW,2013-03-10 08:41:00,
2013-03-10 04:46:00,27.7,20.5,30.29,ESE,113,2.7,2.7,74,0.00,,,0.00,WUHU216HW,2013-03-10 08:46:00,
2013-03-10 04:51:00,27.7,20.5,30.29,SE,135,2.5,3.1,74,0.00,,,0.00,WUHU216HW,2013-03-10 08:51:00,
2013-03-10 04:56:00,27.7,20.5,30.29,SSE,158,4.3,4.7,74,0.00,,,0.00,WUHU216HW,2013-03-10 08:56:00,
2013-03-10 05:01:00,27.7,20.5,30.29,SE,135,2.7,5.4,74,0.00,,,0.00,WUHU216HW,2013-03-10 09:01:00,
2013-03-10 05:05:00,27.7,20.5,30.30,SE,135,0.4,5.4,74,0.00,,,0.00,WUHU216HW,2013-03-10 09:05:00,
2013-03-10 05:10:00,27.7,20.5,30.30,SE,135,1.1,3.4,74,0.00,,,0.00,WUHU216HW,2013-03-10 09:10:00,
2013-03-10 05:15:00,27.7,20.5,30.30,SE,135,1.3,1.3,74,0.00,,,0.00,WUHU216HW,2013-03-10 09:15:00,
2013-03-10 05:20:00,27.7,20.5,30.30,ESE,113,1.8,1.8,74,0.00,,,0.00,WUHU216HW,2013-03-10 09:20:00,
2013-03-10 05:25:00,27.7,20.8,30.30,ESE,113,3.1,3.4,75,0.00,,,0.00,WUHU216HW,2013-03-10 09:25:00,
2013-03-10 05:30:00,27.7,20.5,30.30,ESE,113,3.4,3.4,74,0.00,,,0.00,WUHU216HW,2013-03-10 09:30:00,
2013-03-10 05:35:00,27.7,20.8,30.30,ESE,113,4.9,4.9,75,0.00,,,0.00,WUHU216HW,2013-03-10 09:35:00,
2013-03-10 05:40:00,27.7,20.8,30.30,ESE,113,6.3,6.3,75,0.00,,,0.00,WUHU216HW,2013-03-10 09:40:00,
2013-03-10 05:45:00,27.7,21.1,30.30,ESE,113,5.6,6.3,76,0.00,,,0.00,WUHU216HW,2013-03-10 09:45:00,
2013-03-10 05:50:00,27.7,21.1,30.30,SE,135,6.3,7.2,76,0.00,,,0.00,WUHU216HW,2013-03-10 09:50:00,
2013-03-10 05:55:00,27.7,20.8,30.30,ESE,113,6.3,7.2,75,0.00,,,0.00,WUHU216HW,2013-03-10 09:55:00,
2013-03-10 06:00:00,27.5,20.6,30.30,SE,135,4.0,6.7,75,0.00,,,0.00,WUHU216HW,2013-03-10 10:00:00,
2013-03-10 06:05:00,27.5,20.6,30.30,ESE,113,4.7,6.7,75,0.00,,,0.00,WUHU216HW,2013-03-10 10:05:00,
2013-03-10 06:10:00,27.4,20.2,30.30,ESE,113,2.2,4.7,74,0.00,,,0.00,WUHU216HW,2013-03-10 10:10:00,
2013-03-10 06:15:00,27.4,20.2,30.30,ESE,113,1.3,4.5,74,0.00,,,0.00,WUHU216HW,2013-03-10 10:15:00,
2013-03-10 06:20:00,27.2,20.0,30.30,SE,135,2.5,2.5,74,0.00,,,0.00,WUHU216HW,2013-03-10 10:20:00,
2013-03-10 06:25:00,27.0,19.8,30.30,ENE,68,3.1,3.1,74,0.00,,,0.00,WUHU216HW,2013-03-10 10:25:00,
2013-03-10 06:30:00,27.0,20.1,30.31,SW,225,1.8,3.1,75,0.00,,,0.00,WUHU216HW,2013-03-10 10:30:00,
2013-03-10 06:35:00,26.8,19.9,30.31,SW,225,0.0,2.7,75,0.00,,,0.00,WUHU216HW,2013-03-10 10:35:00,
2013-03-10 06:40:00,26.6,19.5,30.31,ESE,113,1.1,1.8,74,0.00,,,0.00,WUHU216HW,2013-03-10 10:40:00,
2013-03-10 06:45:00,26.6,19.7,30.31,ESE,113,4.0,4.0,75,0.00,,,0.00,WUHU216HW,2013-03-10 10:45:00,
2013-03-10 06:50:00,26.6,19.7,30.31,ESE,113,3.4,4.0,75,0.00,,,0.00,WUHU216HW,2013-03-10 10:50:00,
2013-03-10 06:55:00,26.6,19.7,30.31,South,180,0.9,4.0,75,0.00,,,0.00,WUHU216HW,2013-03-10 10:55:00,
2013-03-10 07:00:00,26.5,19.5,30.31,SW,225,0.2,2.9,75,0.00,,,0.00,WUHU216HW,2013-03-10 11:00:00,
2013-03-10 07:06:00,26.3,19.4,30.32,WSW,248,0.4,1.3,75,0.00,,,0.00,WUHU216HW,2013-03-10 11:06:00,
2013-03-10 07:11:00,26.3,19.4,30.32,ESE,113,2.0,2.0,75,0.00,,,0.00,WUHU216HW,2013-03-10 11:11:00,
2013-03-10 07:16:00,26.3,19.4,30.32,ESE,113,3.4,3.4,75,0.00,,,0.00,WUHU216HW,2013-03-10 11:16:00,
2013-03-10 07:21:00,26.3,19.4,30.31,SE,135,2.5,3.6,75,0.00,,,0.00,WUHU216HW,2013-03-10 11:21:00,
2013-03-10 07:26:00,26.3,19.4,30.32,SE,135,3.6,4.7,75,0.00,,,0.00,WUHU216HW,2013-03-10 11:26:00,
2013-03-10 07:31:00,26.6,19.7,30.32,SE,135,2.7,4.7,75,0.00,,,0.00,WUHU216HW,2013-03-10 11:31:00,
2013-03-10 07:36:00,26.6,19.7,30.32,SSE,158,1.8,4.0,75,0.00,,,0.00,WUHU216HW,2013-03-10 11:36:00,
2013-03-10 07:41:00,26.8,19.9,30.32,SE,135,3.1,3.4,75,0.00,,,0.00,WUHU216HW,2013-03-10 11:41:00,
2013-03-10 07:46:00,26.8,19.9,30.32,SE,135,3.1,3.1,75,0.00,,,0.00,WUHU216HW,2013-03-10 11:46:00,
2013-03-10 08:00:00,27.9,21.2,30.31,SSE,158,4.7,4.7,76,0.00,,,0.00,WUHU216HW,2013-03-10 12:00:00,
2013-03-10 08:05:00,28.4,21.5,30.31,SE,135,5.4,5.4,75,0.00,,,0.00,WUHU216HW,2013-03-10 12:05:00,
2013-03-10 08:10:00,28.8,21.9,30.31,SE,135,5.8,5.8,75,0.00,,,0.00,WUHU216HW,2013-03-10 12:10:00,
2013-03-10 08:15:00,29.3,22.4,30.31,SE,135,7.6,7.6,75,0.00,,,0.00,WUHU216HW,2013-03-10 12:15:00,
2013-03-10 08:20:00,29.9,23.2,30.31,SE,135,6.7,7.6,76,0.00,,,0.00,WUHU216HW,2013-03-10 12:20:00,
2013-03-10 08:25:00,30.2,23.6,30.31,ESE,113,6.3,8.1,76,0.00,,,0.00,WUHU216HW,2013-03-10 12:25:00,
2013-03-10 08:30:00,30.4,23.4,30.31,SE,135,7.4,8.1,75,0.00,,,0.00,WUHU216HW,2013-03-10 12:30:00,
2013-03-10 08:35:00,30.6,23.6,30.31,SE,135,6.3,7.4,75,0.00,,,0.00,WUHU216HW,2013-03-10 12:35:00,
2013-03-10 08:40:00,30.8,23.8,30.31,ESE,113,6.3,7.4,75,0.00,,,0.00,WUHU216HW,2013-03-10 12:40:00,
2013-03-10 08:45:00,31.0,23.9,30.31,ESE,113,8.7,8.7,75,0.00,,,0.00,WUHU216HW,2013-03-10 12:45:00,
2013-03-10 08:50:00,31.1,24.1,30.31,ESE,113,7.8,8.7,75,0.00,,,0.00,WUHU216HW,2013-03-10 12:50:00,
2013-03-10 08:55:00,31.5,24.5,30.31,ESE,113,9.4,9.4,75,0.00,,,0.00,WUHU216HW,2013-03-10 12:55:00,
2013-03-10 09:00:00,32.0,24.7,30.31,SE,135,7.6,10.3,74,0.00,,,0.00,WUHU216HW,2013-03-10 13:00:00,
2013-03-10 09:05:00,32.4,25.0,30.31,SE,135,6.3,10.3,74,0.00,,,0.00,WUHU216HW,2013-03-10 13:05:00,
2013-03-10 09:10:00,32.9,25.5,30.31,SE,135,6.3,8.9,74,0.00,,,0.00,WUHU216HW,2013-03-10 13:10:00,
2013-03-10 09:15:00,33.5,25.7,30.31,SE,135,8.9,11.2,73,0.00,,,0.00,WUHU216HW,2013-03-10 13:15:00,
2013-03-10 09:20:00,33.7,25.2,30.30,SE,135,6.9,11.2,71,0.00,,,0.00,WUHU216HW,2013-03-10 13:20:00,
2013-03-10 09:25:00,33.8,25.0,30.30,SE,135,7.6,9.2,70,0.00,,,0.00,WUHU216HW,2013-03-10 13:25:00,
2013-03-10 09:30:00,33.8,25.0,30.30,SE,135,9.2,10.5,70,0.00,,,0.00,WUHU216HW,2013-03-10 13:30:00,
2013-03-10 09:35:00,34.2,25.4,30.30,SE,135,4.7,10.5,70,0.00,,,0.00,WUHU216HW,2013-03-10 13:35:00,
2013-03-10 09:40:00,34.9,26.5,30.31,SE,135,3.1,7.4,71,0.00,,,0.00,WUHU216HW,2013-03-10 13:40:00,
2013-03-10 09:45:00,35.1,26.3,30.30,SE,135,8.5,8.5,70,0.00,,,0.00,WUHU216HW,2013-03-10 13:45:00,
2013-03-10 09:50:00,35.5,25.9,30.30,SE,135,7.6,11.2,68,0.00,,,0.00,WUHU216HW,2013-03-10 13:50:00,
2013-03-10 09:55:00,35.6,26.1,30.30,SE,135,9.2,11.2,68,0.00,,,0.00,WUHU216HW,2013-03-10 13:55:00,
2013-03-10 10:00:00,36.0,26.5,30.30,ESE,113,9.2,12.1,68,0.00,,,0.00,WUHU216HW,2013-03-10 14:00:00,
2013-03-10 10:05:00,36.5,26.7,30.29,SE,135,7.6,12.1,67,0.00,,,0.00,WUHU216HW,2013-03-10 14:05:00,
2013-03-10 10:10:00,37.1,27.2,30.29,SE,135,10.7,13.4,67,0.00,,,0.00,WUHU216HW,2013-03-10 14:10:00,
2013-03-10 10:15:00,37.6,27.3,30.29,SSE,158,8.7,13.4,66,0.00,,,0.00,WUHU216HW,2013-03-10 14:15:00,
2013-03-10 10:20:00,38.2,27.7,30.29,SE,135,8.1,10.5,66,0.00,,,0.00,WUHU216HW,2013-03-10 14:20:00,
2013-03-10 10:25:00,38.9,28.0,30.29,SE,135,9.2,10.5,65,0.00,,,0.00,WUHU216HW,2013-03-10 14:25:00,
2013-03-10 10:30:00,39.2,27.6,30.29,SE,135,11.9,13.6,63,0.00,,,0.00,WUHU216HW,2013-03-10 14:30:00,
2013-03-10 10:35:00,39.4,27.8,30.28,ESE,113,9.2,13.6,63,0.00,,,0.00,WUHU216HW,2013-03-10 14:35:00,
2013-03-10 10:40:00,40.0,28.7,30.28,SE,135,7.6,12.1,64,0.00,,,0.00,WUHU216HW,2013-03-10 14:40:00,
2013-03-10 10:45:00,41.0,29.4,30.28,SE,135,7.8,12.1,63,0.00,,,0.00,WUHU216HW,2013-03-10 14:45:00,
2013-03-10 10:50:00,41.4,29.3,30.28,ESE,113,9.8,13.0,62,0.00,,,0.00,WUHU216HW,2013-03-10 14:50:00,
2013-03-10 10:55:00,41.9,29.4,30.28,SE,135,9.6,13.0,61,0.00,,,0.00,WUHU216HW,2013-03-10 14:55:00,
2013-03-10 11:00:00,42.5,29.5,30.27,ESE,113,14.5,14.5,60,0.00,,,0.00,WUHU216HW,2013-03-10 15:00:00,
2013-03-10 11:05:00,42.5,29.2,30.27,SE,135,11.6,14.5,59,0.00,,,0.00,WUHU216HW,2013-03-10 15:05:00,
2013-03-10 11:10:00,42.7,29.3,30.26,SE,135,10.3,14.5,59,0.00,,,0.00,WUHU216HW,2013-03-10 15:10:00,
2013-03-10 11:15:00,42.7,28.9,30.26,SE,135,12.5,12.8,58,0.00,,,0.00,WUHU216HW,2013-03-10 15:15:00,
2013-03-10 11:20:00,43.0,28.8,30.27,SE,135,11.4,12.5,57,0.00,,,0.00,WUHU216HW,2013-03-10 15:20:00,
2013-03-10 11:25:00,43.4,29.1,30.27,SE,135,7.6,11.9,57,0.00,,,0.00,WUHU216HW,2013-03-10 15:25:00,
2013-03-10 11:30:00,43.6,28.8,30.27,SSE,158,8.5,11.2,56,0.00,,,0.00,WUHU216HW,2013-03-10 15:30:00,
2013-03-10 11:35:00,43.9,29.2,30.26,SE,135,12.1,12.5,56,0.00,,,0.00,WUHU216HW,2013-03-10 15:35:00,
2013-03-10 11:40:00,45.0,30.7,30.25,ESE,113,10.5,13.4,57,0.00,,,0.00,WUHU216HW,2013-03-10 15:40:00,
2013-03-10 11:46:00,46.1,30.7,30.25,SE,135,11.9,13.4,55,0.00,,,0.00,WUHU216HW,2013-03-10 15:46:00,
2013-03-10 11:51:00,46.6,30.8,30.25,SE,135,9.8,12.1,54,0.00,,,0.00,WUHU216HW,2013-03-10 15:51:00,
2013-03-10 11:56:00,46.8,30.1,30.25,SE,135,12.8,12.8,52,0.00,,,0.00,WUHU216HW,2013-03-10 15:56:00,
2013-03-10 12:01:00,46.8,29.2,30.25,SE,135,11.0,15.0,50,0.00,,,0.00,WUHU216HW,2013-03-10 16:01:00,
2013-03-10 12:06:00,46.8,29.6,30.25,SE,135,12.1,15.0,51,0.00,,,0.00,WUHU216HW,2013-03-10 16:06:00,
2013-03-10 12:11:00,47.0,29.3,30.25,SE,135,10.5,12.5,50,0.00,,,0.00,WUHU216HW,2013-03-10 16:11:00,
2013-03-10 12:16:00,47.2,29.4,30.25,SE,135,12.5,13.0,50,0.00,,,0.00,WUHU216HW,2013-03-10 16:16:00,
2013-03-10 12:21:00,47.5,29.8,30.24,ESE,113,12.1,13.0,50,0.00,,,0.00,WUHU216HW,2013-03-10 16:21:00,
2013-03-10 12:26:00,48.2,30.4,30.24,SE,135,12.1,12.8,50,0.00,,,0.00,WUHU216HW,2013-03-10 16:26:00,
2013-03-10 12:31:00,48.8,29.9,30.25,SSE,158,12.1,15.0,48,0.00,,,0.00,WUHU216HW,2013-03-10 16:31:00,
2013-03-10 12:36:00,49.0,29.0,30.24,ESE,113,10.7,15.7,46,0.00,,,0.00,WUHU216HW,2013-03-10 16:36:00,
2013-03-10 12:41:00,49.3,29.9,30.24,SE,135,11.6,15.7,47,0.00,,,0.00,WUHU216HW,2013-03-10 16:41:00,
2013-03-10 12:46:00,49.3,29.4,30.24,SE,135,13.6,14.3,46,0.00,,,0.00,WUHU216HW,2013-03-10 16:46:00,
2013-03-10 12:51:00,49.3,28.7,30.24,SE,135,12.5,15.0,45,0.00,,,0.00,WUHU216HW,2013-03-10 16:51:00,
2013-03-10 12:56:00,49.3,28.7,30.24,ESE,113,16.1,16.1,45,0.00,,,0.00,WUHU216HW,2013-03-10 16:56:00,
2013-03-10 13:01:00,49.3,28.7,30.23,ESE,113,15.4,16.1,45,0.00,,,0.00,WUHU216HW,2013-03-10 17:01:00,
2013-03-10 13:06:00,49.7,29.1,30.23,ESE,113,12.8,15.9,45,0.00,,,0.00,WUHU216HW,2013-03-10 17:06:00,
2013-03-10 13:11:00,50.0,29.4,30.23,SE,135,15.7,16.1,45,0.00,,,0.00,WUHU216HW,2013-03-10 17:11:00,
2013-03-10 13:16:00,50.2,29.1,30.22,SSE,158,15.7,16.1,44,0.00,,,0.00,WUHU216HW,2013-03-10 17:16:00,
2013-03-10 13:21:00,50.8,29.5,30.22,SE,135,13.9,15.7,44,0.00,,,0.00,WUHU216HW,2013-03-10 17:21:00,
2013-03-10 13:26:00,51.3,30.0,30.23,SE,135,11.4,13.9,44,0.00,,,0.00,WUHU216HW,2013-03-10 17:26:00,
2013-03-10 13:31:00,51.5,29.1,30.22,SE,135,15.7,17.2,42,0.00,,,0.00,WUHU216HW,2013-03-10 17:31:00,
2013-03-10 13:36:00,51.1,28.7,30.22,ESE,113,8.7,17.2,42,0.00,,,0.00,WUHU216HW,2013-03-10 17:36:00,
2013-03-10 13:41:00,51.3,29.4,30.21,SE,135,11.6,15.2,43,0.00,,,0.00,WUHU216HW,2013-03-10 17:41:00,
2013-03-10 13:46:00,51.5,29.1,30.21,SE,135,14.3,15.0,42,0.00,,,0.00,WUHU216HW,2013-03-10 17:46:00,
2013-03-10 13:51:00,51.3,28.4,30.21,SE,135,13.0,16.8,41,0.00,,,0.00,WUHU216HW,2013-03-10 17:51:00,
2013-03-10 13:56:00,51.1,29.3,30.21,ESE,113,11.9,16.8,43,0.00,,,0.00,WUHU216HW,2013-03-10 17:56:00,
2013-03-10 14:01:00,51.5,29.1,30.21,SE,135,11.4,13.4,42,0.00,,,0.00,WUHU216HW,2013-03-10 18:01:00,
2013-03-10 14:06:00,51.5,29.6,30.20,ESE,113,9.4,12.8,43,0.00,,,0.00,WUHU216HW,2013-03-10 18:06:00,
2013-03-10 14:11:00,51.7,29.3,30.20,SE,135,11.4,13.6,42,0.00,,,0.00,WUHU216HW,2013-03-10 18:11:00,
2013-03-10 14:16:00,51.7,29.3,30.20,ESE,113,11.4,16.3,42,0.00,,,0.00,WUHU216HW,2013-03-10 18:16:00,
2013-03-10 14:21:00,51.5,29.1,30.20,ESE,113,12.1,16.3,42,0.00,,,0.00,WUHU216HW,2013-03-10 18:21:00,
2013-03-10 14:26:00,51.5,29.6,30.20,ESE,113,10.5,14.3,43,0.00,,,0.00,WUHU216HW,2013-03-10 18:26:00,
2013-03-10 14:31:00,51.7,29.8,30.19,SE,135,9.2,13.4,43,0.00,,,0.00,WUHU216HW,2013-03-10 18:31:00,
2013-03-10 14:36:00,52.0,30.1,30.19,ESE,113,13.4,13.9,43,0.00,,,0.00,WUHU216HW,2013-03-10 18:36:00,
2013-03-10 14:41:00,52.2,29.2,30.18,ESE,113,12.3,15.9,41,0.00,,,0.00,WUHU216HW,2013-03-10 18:41:00,
2013-03-10 14:46:00,52.2,29.2,30.18,SE,135,11.6,15.9,41,0.00,,,0.00,WUHU216HW,2013-03-10 18:46:00,
2013-03-10 14:51:00,52.2,29.2,30.18,ESE,113,12.8,14.5,41,0.00,,,0.00,WUHU216HW,2013-03-10 18:51:00,
2013-03-10 14:56:00,52.4,29.4,30.18,ESE,113,11.2,15.0,41,0.00,,,0.00,WUHU216HW,2013-03-10 18:56:00,
2013-03-10 15:02:00,52.4,29.4,30.18,SE,135,13.4,15.0,41,0.00,,,0.00,WUHU216HW,2013-03-10 19:02:00,
2013-03-10 15:07:00,52.6,29.4,30.17,ESE,113,10.1,16.1,41,0.00,,,0.00,WUHU216HW,2013-03-10 19:07:00,
2013-03-10 15:12:00,52.6,29.4,30.17,ESE,113,14.8,15.7,41,0.00,,,0.00,WUHU216HW,2013-03-10 19:12:00,
2013-03-10 15:17:00,52.4,29.4,30.17,ESE,113,13.9,15.4,41,0.00,,,0.00,WUHU216HW,2013-03-10 19:17:00,
2013-03-10 15:22:00,52.2,29.2,30.17,SE,135,12.5,15.4,41,0.00,,,0.00,WUHU216HW,2013-03-10 19:22:00,
2013-03-10 15:27:00,51.8,29.3,30.16,ESE,113,10.5,13.6,42,0.00,,,0.00,WUHU216HW,2013-03-10 19:27:00,
2013-03-10 15:32:00,51.7,29.3,30.16,ESE,113,10.5,13.0,42,0.00,,,0.00,WUHU216HW,2013-03-10 19:32:00,
2013-03-10 15:37:00,51.7,29.3,30.16,SSE,158,10.5,12.3,42,0.00,,,0.00,WUHU216HW,2013-03-10 19:37:00,
2013-03-10 15:42:00,51.5,29.1,30.16,ESE,113,12.1,14.3,42,0.00,,,0.00,WUHU216HW,2013-03-10 19:42:00,
2013-03-10 15:48:00,51.5,28.5,30.16,ESE,113,11.4,14.3,41,0.00,,,0.00,WUHU216HW,2013-03-10 19:48:00,
2013-03-10 15:53:00,51.5,29.1,30.16,ESE,113,11.4,12.5,42,0.00,,,0.00,WUHU216HW,2013-03-10 19:53:00,
2013-03-10 15:58:00,51.1,29.3,30.15,SE,135,12.8,13.0,43,0.00,,,0.00,WUHU216HW,2013-03-10 19:58:00,
2013-03-10 16:03:00,51.1,29.3,30.16,SE,135,13.2,13.2,43,0.00,,,0.00,WUHU216HW,2013-03-10 20:03:00,
2013-03-10 16:08:00,50.9,28.5,30.15,ESE,113,12.8,13.6,42,0.00,,,0.00,WUHU216HW,2013-03-10 20:08:00,
2013-03-10 16:13:00,50.9,28.5,30.16,SE,135,12.5,13.9,42,0.00,,,0.00,WUHU216HW,2013-03-10 20:13:00,
2013-03-10 16:18:00,50.9,29.2,30.16,SE,135,9.8,13.9,43,0.00,,,0.00,WUHU216HW,2013-03-10 20:18:00,
2013-03-10 16:23:00,50.8,28.5,30.16,SE,135,8.5,12.5,42,0.00,,,0.00,WUHU216HW,2013-03-10 20:23:00,
2013-03-10 16:28:00,50.8,28.5,30.15,ESE,113,9.2,12.1,42,0.00,,,0.00,WUHU216HW,2013-03-10 20:28:00,
2013-03-10 16:33:00,50.9,28.5,30.15,SE,135,11.6,12.1,42,0.00,,,0.00,WUHU216HW,2013-03-10 20:33:00,
2013-03-10 16:38:00,51.1,28.7,30.16,SE,135,6.7,11.6,42,0.00,,,0.00,WUHU216HW,2013-03-10 20:38:00,
2013-03-10 16:43:00,51.5,29.1,30.15,SE,135,6.0,9.2,42,0.00,,,0.00,WUHU216HW,2013-03-10 20:43:00,
2013-03-10 16:48:00,51.7,29.3,30.15,SE,135,7.8,12.3,42,0.00,,,0.00,WUHU216HW,2013-03-10 20:48:00,
2013-03-10 16:53:00,51.7,29.3,30.15,SE,135,8.7,12.3,42,0.00,,,0.00,WUHU216HW,2013-03-10 20:53:00,
2013-03-10 16:58:00,51.5,29.1,30.14,SE,135,9.8,9.8,42,0.00,,,0.00,WUHU216HW,2013-03-10 20:58:00,
2013-03-10 17:03:00,51.1,28.7,30.14,SE,135,11.4,11.4,42,0.00,,,0.00,WUHU216HW,2013-03-10 21:03:00,
2013-03-10 17:08:00,50.8,28.5,30.14,ESE,113,11.0,11.4,42,0.00,,,0.00,WUHU216HW,2013-03-10 21:08:00,
2013-03-10 17:13:00,50.8,28.5,30.13,SE,135,7.2,11.0,42,0.00,,,0.00,WUHU216HW,2013-03-10 21:13:00,
2013-03-10 17:18:00,50.6,28.8,30.13,ESE,113,8.3,9.8,43,0.00,,,0.00,WUHU216HW,2013-03-10 21:18:00,
2013-03-10 17:23:00,50.4,28.6,30.13,East,90,6.7,10.5,43,0.00,,,0.00,WUHU216HW,2013-03-10 21:23:00,
2013-03-10 17:28:00,50.4,28.6,30.13,SE,135,8.9,10.5,43,0.00,,,0.00,WUHU216HW,2013-03-10 21:28:00,
2013-03-10 17:33:00,50.4,28.6,30.13,SE,135,6.9,9.4,43,0.00,,,0.00,WUHU216HW,2013-03-10 21:33:00,
2013-03-10 17:36:00,50.4,28.6,30.13,SE,135,7.4,7.4,43,0.00,,,0.00,WUHU216HW,2013-03-10 21:36:00,
2013-03-10 17:38:00,50.4,28.6,30.13,SE,135,7.4,8.5,43,0.00,,,0.00,WUHU216HW,2013-03-10 21:38:00,
2013-03-10 17:43:00,50.4,28.6,30.13,SE,135,7.4,7.4,43,0.00,,,0.00,WUHU216HW,2013-03-10 21:43:00,
2013-03-10 18:00:00,50.0,28.4,30.13,South,180,4.0,4.0,43,0.00,,,0.00,WUHU216HW,2013-03-10 22:00:00,
2013-03-10 18:05:00,50.0,28.9,30.12,SSE,158,3.4,5.6,44,0.00,,,0.00,WUHU216HW,2013-03-10 22:05:00,
2013-03-10 18:17:00,49.9,27.6,30.12,SSE,158,2.2,5.4,42,0.00,,,0.00,WUHU216HW,2013-03-10 22:17:00,
2013-03-10 18:22:00,49.9,28.2,30.13,South,180,1.8,5.4,43,0.00,,,0.00,WUHU216HW,2013-03-10 22:22:00,
2013-03-10 18:27:00,49.7,28.0,30.13,SSE,158,3.1,3.6,43,0.00,,,0.00,WUHU216HW,2013-03-10 22:27:00,
2013-03-10 18:32:00,49.7,28.0,30.13,SSE,158,1.8,3.4,43,0.00,,,0.00,WUHU216HW,2013-03-10 22:32:00,
2013-03-10 18:37:00,49.7,27.5,30.13,SW,225,2.5,3.4,42,0.00,,,0.00,WUHU216HW,2013-03-10 22:37:00,
2013-03-10 18:42:00,49.7,28.0,30.13,SE,135,1.8,3.4,43,0.00,,,0.00,WUHU216HW,2013-03-10 22:42:00,
2013-03-10 18:47:00,49.5,27.8,30.13,SE,135,4.7,4.7,43,0.00,,,0.00,WUHU216HW,2013-03-10 22:47:00,
2013-03-10 18:52:00,49.3,27.6,30.13,SSE,158,2.9,4.7,43,0.00,,,0.00,WUHU216HW,2013-03-10 22:52:00,
2013-03-10 18:57:00,49.3,27.6,30.13,South,180,2.7,3.6,43,0.00,,,0.00,WUHU216HW,2013-03-10 22:57:00,
2013-03-10 19:02:00,49.1,26.9,30.14,SE,135,2.0,3.6,42,0.00,,,0.00,WUHU216HW,2013-03-10 23:02:00,
2013-03-10 19:07:00,49.0,27.3,30.14,South,180,4.0,4.0,43,0.00,,,0.00,WUHU216HW,2013-03-10 23:07:00,
2013-03-10 19:12:00,49.0,27.3,30.13,SE,135,2.7,4.3,43,0.00,,,0.00,WUHU216HW,2013-03-10 23:12:00,
2013-03-10 19:17:00,48.8,27.2,30.13,ESE,113,3.6,4.3,43,0.00,,,0.00,WUHU216HW,2013-03-10 23:17:00,
2013-03-10 19:22:00,48.8,27.2,30.13,SE,135,4.7,4.9,43,0.00,,,0.00,WUHU216HW,2013-03-10 23:22:00,
2013-03-10 19:27:00,48.6,27.0,30.13,SE,135,2.5,4.9,43,0.00,,,0.00,WUHU216HW,2013-03-10 23:27:00,
2013-03-10 19:32:00,48.6,27.0,30.13,SE,135,1.8,4.7,43,0.00,,,0.00,WUHU216HW,2013-03-10 23:32:00,
2013-03-10 19:37:00,48.6,27.0,30.13,SSE,158,1.8,4.3,43,0.00,,,0.00,WUHU216HW,2013-03-10 23:37:00,
2013-03-10 19:42:00,48.4,26.8,30.13,NNE,23,1.8,4.3,43,0.00,,,0.00,WUHU216HW,2013-03-10 23:42:00,
2013-03-10 19:47:00,48.2,26.6,30.14,SE,135,3.4,3.4,43,0.00,,,0.00,WUHU216HW,2013-03-10 23:47:00,
2013-03-10 19:52:00,48.2,27.2,30.13,SE,135,4.5,4.5,44,0.00,,,0.00,WUHU216HW,2013-03-10 23:52:00,
2013-03-10 19:57:00,48.1,27.0,30.13,SE,135,6.0,6.0,44,0.00,,,0.00,WUHU216HW,2013-03-10 23:57:00,
2013-03-10 20:02:00,48.1,27.0,30.13,South,180,4.7,6.0,44,0.00,,,0.00,WUHU216HW,2013-03-11 00:02:00,
2013-03-10 20:07:00,48.1,27.0,30.13,SSE,158,4.3,6.0,44,0.00,,,0.00,WUHU216HW,2013-03-11 00:07:00,
2013-03-10 20:12:00,47.9,26.8,30.13,WSW,248,1.6,5.4,44,0.00,,,0.00,WUHU216HW,2013-03-11 00:12:00,
2013-03-10 20:17:00,47.9,26.8,30.13,West,270,1.1,5.1,44,0.00,,,0.00,WUHU216HW,2013-03-11 00:17:00,
2013-03-10 20:22:00,47.7,26.2,30.13,SSW,203,2.5,3.6,43,0.00,,,0.00,WUHU216HW,2013-03-11 00:22:00,
2013-03-10 20:27:00,47.7,26.7,30.13,SE,135,2.0,3.6,44,0.00,,,0.00,WUHU216HW,2013-03-11 00:27:00,
2013-03-10 20:32:00,47.5,26.6,30.14,SW,225,2.7,3.4,44,0.00,,,0.00,WUHU216HW,2013-03-11 00:32:00,
2013-03-10 20:37:00,47.5,26.6,30.14,SSE,158,4.0,4.0,44,0.00,,,0.00,WUHU216HW,2013-03-11 00:37:00,
2013-03-10 20:42:00,47.3,26.4,30.14,SE,135,4.0,4.0,44,0.00,,,0.00,WUHU216HW,2013-03-11 00:42:00,
2013-03-10 20:47:00,47.3,26.4,30.14,SW,225,1.1,4.0,44,0.00,,,0.00,WUHU216HW,2013-03-11 00:47:00,
2013-03-10 20:53:00,47.2,26.2,30.14,ESE,113,2.9,6.3,44,0.00,,,0.00,WUHU216HW,2013-03-11 00:53:00,
2013-03-10 20:58:00,47.2,26.7,30.13,SSE,158,4.7,6.3,45,0.00,,,0.00,WUHU216HW,2013-03-11 00:58:00,
2013-03-10 21:03:00,47.2,26.7,30.13,South,180,6.9,6.9,45,0.00,,,0.00,WUHU216HW,2013-03-11 01:03:00,
2013-03-10 21:08:00,47.2,26.2,30.14,SE,135,2.2,6.9,44,0.00,,,0.00,WUHU216HW,2013-03-11 01:08:00,
2013-03-10 21:12:00,47.2,26.7,30.14,East,90,1.3,1.3,45,0.00,,,0.00,WUHU216HW,2013-03-11 01:12:00,
2013-03-10 21:13:00,47.2,26.7,30.14,East,90,1.3,6.9,45,0.00,,,0.00,WUHU216HW,2013-03-11 01:13:00,
2013-03-10 21:18:00,47.2,26.7,30.14,East,90,1.3,4.3,45,0.00,,,0.00,WUHU216HW,2013-03-11 01:18:00,
2013-03-10 21:42:00,46.6,26.8,30.14,SW,225,4.7,4.7,46,0.00,,,0.00,WUHU216HW,2013-03-11 01:42:00,
2013-03-10 21:47:00,46.6,26.8,30.14,SE,135,5.1,6.5,46,0.00,,,0.00,WUHU216HW,2013-03-11 01:47:00,
2013-03-10 21:52:00,46.8,27.0,30.15,ENE,68,3.6,6.5,46,0.00,,,0.00,WUHU216HW,2013-03-11 01:52:00,
2013-03-10 21:57:00,46.6,27.4,30.15,SSE,158,4.5,6.5,47,0.00,,,0.00,WUHU216HW,2013-03-11 01:57:00,
2013-03-10 22:02:00,46.4,27.2,30.16,East,90,3.6,5.1,47,0.00,,,0.00,WUHU216HW,2013-03-11 02:02:00,
2013-03-10 22:07:00,46.4,27.2,30.16,South,180,4.0,5.1,47,0.00,,,0.00,WUHU216HW,2013-03-11 02:07:00,
2013-03-10 22:12:00,46.4,27.7,30.16,SE,135,2.5,4.7,48,0.00,,,0.00,WUHU216HW,2013-03-11 02:12:00,
2013-03-10 22:17:00,46.4,27.7,30.16,East,90,4.5,4.7,48,0.00,,,0.00,WUHU216HW,2013-03-11 02:17:00,
2013-03-10 22:22:00,46.4,27.7,30.16,SE,135,4.5,4.7,48,0.00,,,0.00,WUHU216HW,2013-03-11 02:22:00,
2013-03-10 22:27:00,46.4,27.7,30.16,SE,135,7.8,7.8,48,0.00,,,0.00,WUHU216HW,2013-03-11 02:27:00,
2013-03-10 22:32:00,46.4,28.3,30.16,SE,135,6.5,10.7,49,0.00,,,0.00,WUHU216HW,2013-03-11 02:32:00,
2013-03-10 22:37:00,46.4,28.3,30.16,SE,135,6.3,10.7,49,0.00,,,0.00,WUHU216HW,2013-03-11 02:37:00,
2013-03-10 22:42:00,46.3,28.6,30.15,SE,135,6.7,9.6,50,0.00,,,0.00,WUHU216HW,2013-03-11 02:42:00,
2013-03-10 22:47:00,46.3,28.6,30.15,SW,225,4.7,9.6,50,0.00,,,0.00,WUHU216HW,2013-03-11 02:47:00,
2013-03-10 22:52:00,46.1,28.4,30.15,SE,135,7.8,7.8,50,0.00,,,0.00,WUHU216HW,2013-03-11 02:52:00,
2013-03-10 22:57:00,46.3,28.6,30.15,ESE,113,5.6,7.8,50,0.00,,,0.00,WUHU216HW,2013-03-11 02:57:00,
2013-03-10 23:02:00,46.3,29.1,30.15,SSE,158,4.7,7.8,51,0.00,,,0.00,WUHU216HW,2013-03-11 03:02:00,
2013-03-10 23:07:00,46.1,28.9,30.15,East,90,3.1,6.3,51,0.00,,,0.00,WUHU216HW,2013-03-11 03:07:00,
2013-03-10 23:12:00,46.1,28.9,30.15,East,90,2.2,6.7,51,0.00,,,0.00,WUHU216HW,2013-03-11 03:12:00,
2013-03-10 23:17:00,46.1,28.9,30.16,SSE,158,4.0,6.7,51,0.00,,,0.00,WUHU216HW,2013-03-11 03:17:00,
2013-03-10 23:22:00,46.3,29.1,30.16,SE,135,7.8,7.8,51,0.00,,,0.00,WUHU216HW,2013-03-11 03:22:00,
2013-03-10 23:27:00,46.3,29.5,30.16,SSE,158,5.8,7.8,52,0.00,,,0.00,WUHU216HW,2013-03-11 03:27:00,
2013-03-10 23:32:00,46.4,29.7,30.16,SE,135,7.6,8.5,52,0.00,,,0.00,WUHU216HW,2013-03-11 03:32:00,
2013-03-10 23:37:00,46.4,29.7,30.16,SE,135,4.7,8.5,52,0.00,,,0.00,WUHU216HW,2013-03-11 03:37:00,
2013-03-10 23:42:00,46.4,29.7,30.16,SE,135,7.2,7.6,52,0.00,,,0.00,WUHU216HW,2013-03-11 03:42:00,
2013-03-10 23:47:00,46.4,29.7,30.16,SE,135,6.9,8.5,52,0.00,,,0.00,WUHU216HW,2013-03-11 03:47:00,
2013-03-10 23:52:00,46.4,29.7,30.16,ESE,113,5.8,8.7,52,0.00,,,0.00,WUHU216HW,2013-03-11 03:52:00,
2013-03-10 23:57:00,46.3,29.5,30.16,SE,135,6.3,9.4,52,0.00,,,0.00,WUHU216HW,2013-03-11 03:57:00,